Wind_Speed
14 14 15 15 16 16 17 17 18 18 19 20 20 21 21 22 23 23 24 24 25 25 25 26 27 28 29 29 30 31 31 31 32 33 33 33 32 32
14 15 16 17 17 18 19 19 19 20 20 21 22 22 23 23 23 24 25 26 27 27 28 29 30 30 31 31 32 33 33 33 34 34 35 35 35 35
15 16 18 18 19 20 20 20 21 21 21 22 24 25 25 25 26 26 27 28 28 29 30 30 31 31 32 32 33 33 34 35 35 36 36 37 37 38
17 17 18 19 20 21 22 22 23 23 23 24 26 27 27 28 28 29 30 30 30 32 32 33 33 33 33 33 34 34 35 36 37 38 39 39 39 39
17 19 20 20 21 23 23 24 24 25 26 27 27 28 28 29 30 31 31 32 32 33 33 34 35 35 35 35 36 36 38 39 39 40 40 41 42 42
19 20 20 21 22 23 24 25 26 27 28 28 28 29 29 30 31 31 32 33 33 33 34 35 35 35 36 36 37 37 38 39 40 41 41 42 42 41
19 20 21 22 23 23 24 26 27 28 28 29 28 28 29 29 30 30 31 31 32 33 34 35 35 35 35 36 37 38 39 39 40 40 41 42 42 42
21 21 22 23 23 24 24 24 25 25 26 26 26 27 28 29 29 30 31 32 32 33 34 35 35 36 37 37 38 38 39 40 41 41 40 41 41 41
21 22 23 23 23 24 24 24 25 25 25 25 27 28 29 29 30 31 32 33 34 34 35 36 37 37 37 38 39 40 40 40 40 40 41 41 41 42
23 23 24 24 24 25 24 25 26 26 26 27 28 29 30 31 31 32 33 33 34 35 35 36 37 38 38 39 39 40 40 40 40 40 40 40 41 41
23 24 24 25 25 26 26 26 27 27 28 28 29 30 30 31 31 32 33 34 35 35 36 37 37 37 37 37 38 38 39 39 39 39 39 39 39 40
25 25 26 26 26 26 26 27 27 28 28 29 30 30 30 31 32 33 34 34 35 36 36 36 36 36 36 36 36 36 36 36 37 37 37 37 37 38
26 26 26 26 26 26 26 27 28 28 28 29 30 30 31 32 33 34 34 35 35 35 35 35 35 35 35 35 35 34 34 35 35 35 36 36 36 36
26 27 27 26 27 27 27 28 29 29 29 30 30 31 32 32 33 33 34 34 34 34 33 33 33 33 34 33 34 34 34 35 35 35 34 34 34 34
27 27 27 28 28 28 28 28 28 29 30 31 30 31 31 32 33 33 33 32 33 32 32 31 31 32 32 33 33 34 34 34 34 33 33 33 33 33
28 28 28 28 28 28 28 28 29 29 30 30 30 31 31 31 31 31 31 31 30 30 30 30 31 31 31 31 32 32 32 32 32 31 31 31 31 31
28 28 28 28 28 28 28 29 29 30 30 30 31 31 31 31 31 31 31 30 29 29 30 30 31 31 30 31 30 30 30 30 30 29 29 29 29 30
28 28 28 28 28 28 29 29 30 30 30 31 31 31 31 31 31 31 30 29 29 29 30 30 30 30 30 29 29 29 29 29 28 28 28 28 28 28
28 28 28 28 28 28 29 29 29 29 30 30 31 31 30 30 30 30 30 29 29 29 29 29 29 29 29 29 29 29 28 28 27 27 27 27 26 27
28 28 27 27 28 28 29 29 29 29 30 30 30 30 30 30 30 29 29 28 29 29 29 29 29 28 28 28 28 27 27 27 27 26 26 26 26 26
28 27 27 27 28 28 29 29 29 29 30 30 30 30 29 29 29 29 29 29 29 29 29 29 28 28 27 27 26 26 26 26 26 26 26 25 24 24
27 27 27 28 28 28 29 29 29 29 29 29 29 29 29 29 29 29 29 29 29 29 29 28 28 27 27 26 26 26 26 26 26 26 25 24 24 23
27 27 28 28 29 29 29 29 29 29 29 29 29 29 29 29 29 29 29 28 28 28 28 27 27 27 27 26 26 26 26 26 26 25 26 25 24 23
Wind_Direction
276 280 282 284 285 285 284 284 283 283 282 283 284 286 286 286 285 284 284 284 284 283 283 283 283 283 282 281 279 277 275 275 274 272 271 272 272 273
280 281 283 285 285 286 287 286 285 284 283 282 283 284 285 286 286 285 284 284 284 284 283 281 282 283 282 281 279 278 276 276 275 275 274 273 273 273
285 285 284 285 287 286 286 287 286 286 285 283 285 286 285 285 285 284 285 284 284 284 285 285 285 284 283 282 280 279 279 277 276 276 276 276 275 274
286 285 285 286 289 289 288 288 287 286 285 285 286 286 286 285 285 284 284 285 285 285 285 285 284 284 283 282 281 280 279 278 277 276 276 276 276 275
288 288 288 289 291 289 289 289 287 286 286 286 287 288 287 286 286 286 286 286 286 285 285 286 285 284 283 282 281 280 280 279 278 277 277 277 277 277
290 292 292 291 292 292 291 290 289 289 288 288 288 288 288 287 288 288 287 288 288 288 288 288 287 286 285 285 283 282 281 281 281 281 280 280 279 278
295 295 294 294 294 294 292 292 292 290 291 291 292 292 291 291 291 292 291 291 292 291 290 289 289 289 289 288 288 286 284 283 282 282 282 281 279 279
299 299 299 299 299 295 293 294 296 295 296 296 295 294 294 294 293 293 294 293 292 292 292 292 290 289 289 288 289 288 287 285 285 284 284 284 282 281
302 301 302 304 303 301 299 299 299 298 297 297 296 296 295 295 296 296 295 294 294 294 293 292 291 290 290 290 289 289 288 287 287 286 285 284 284 283
303 304 304 304 303 303 302 301 300 299 299 299 299 298 297 297 298 298 298 297 296 295 294 293 292 291 291 290 291 290 289 288 288 287 286 285 284 283
308 307 305 304 302 301 300 301 300 299 299 300 300 300 301 301 301 300 299 299 298 297 296 295 294 293 293 292 293 292 290 290 290 289 288 286 285 284
309 307 305 304 303 302 302 302 302 302 302 302 302 303 303 303 303 302 301 300 300 299 298 298 297 296 296 296 296 296 295 294 294 293 291 290 288 287
310 308 307 305 306 304 303 302 303 303 304 304 304 304 304 304 304 304 304 303 302 301 300 299 299 298 298 299 299 298 297 296 296 296 294 293 291 289
310 309 307 306 307 306 305 304 305 306 306 306 306 307 307 307 307 307 307 307 306 304 303 302 301 300 299 299 299 299 298 298 297 296 295 294 292 291
310 308 308 307 306 305 305 306 306 307 308 308 308 309 309 310 309 309 309 308 307 305 305 304 304 303 302 302 301 301 300 300 298 297 296 295 294 293
309 308 307 306 306 305 306 306 307 308 309 310 310 311 312 312 312 311 311 311 310 308 308 308 308 307 306 306 305 304 302 301 300 299 298 298 296 295
309 308 307 306 306 306 307 306 308 309 310 311 311 312 313 314 313 313 312 311 311 310 309 310 310 310 309 308 307 307 306 304 303 302 302 301 299 298
310 309 308 307 307 307 308 309 309 310 311 311 312 312 313 314 314 313 313 312 311 311 311 311 311 310 309 309 308 308 307 307 305 305 304 304 303 301
309 309 309 308 308 308 308 309 309 309 311 312 312 313 313 314 314 314 314 313 313 313 313 312 312 311 311 311 310 310 309 308 308 308 309 308 306 305
307 307 308 308 308 308 308 309 310 310 311 312 313 313 315 316 316 315 315 314 313 313 313 312 312 312 312 312 312 311 311 312 312 312 311 310 309 308
306 306 307 308 309 310 310 311 312 312 312 313 313 314 315 315 315 315 314 314 314 314 313 313 313 312 312 313 314 314 315 315 314 314 314 313 312 312
304 306 307 308 309 310 311 312 313 313 314 314 315 315 315 315 315 315 315 315 315 315 315 314 314 313 314 314 315 315 315 315 316 316 316 315 314 313
305 307 308 310 310 311 311 312 312 313 314 314 314 315 315 315 316 315 316 316 316 315 315 315 314 314 314 315 315 315 314 315 316 316 315 315 314 313
Height
5880 5879 5878 5877 5877 5876 5875 5874 5874 5872 5871 5870 5868 5867 5866 5864 5863 5862 5861 5860 5858 5857 5855 5854 5852 5851 5850 5848 5847 5846 5845 5844 5843 5842 5841 5841 5840 5839
5876 5876 5875 5874 5873 5872 5871 5869 5868 5868 5866 5865 5863 5862 5860 5859 5857 5856 5854 5853 5852 5850 5848 5847 5845 5843 5841 5839 5838 5837 5836 5835 5834 5833 5832 5831 5831 5830
5873 5872 5871 5870 5869 5867 5866 5865 5863 5862 5861 5860 5858 5856 5854 5853 5851 5849 5848 5846 5844 5843 5841 5839 5837 5835 5833 5831 5830 5828 5827 5826 5825 5824 5823 5822 5820 5820
5869 5868 5867 5866 5864 5863 5861 5859 5858 5856 5855 5854 5852 5850 5848 5846 5844 5843 5841 5838 5837 5835 5833 5831 5829 5827 5825 5823 5821 5819 5818 5816 5815 5813 5812 5811 5810 5808
5865 5864 5862 5861 5859 5857 5856 5854 5852 5850 5849 5847 5845 5843 5841 5839 5837 5835 5833 5831 5828 5826 5824 5822 5820 5818 5816 5813 5811 5809 5808 5806 5805 5803 5801 5799 5798 5796
5861 5859 5858 5856 5854 5852 5850 5848 5846 5844 5841 5840 5838 5836 5833 5831 5829 5827 5825 5822 5820 5818 5815 5813 5811 5808 5806 5804 5802 5799 5797 5795 5793 5791 5790 5788 5786 5784
5856 5855 5853 5850 5848 5846 5844 5841 5839 5837 5834 5832 5830 5828 5826 5823 5821 5819 5816 5814 5811 5809 5806 5804 5801 5799 5796 5794 5791 5789 5786 5784 5782 5780 5778 5776 5774 5772
5852 5850 5847 5845 5842 5840 5837 5835 5832 5830 5828 5825 5823 5821 5818 5816 5814 5811 5808 5806 5803 5801 5797 5795 5792 5789 5786 5784 5781 5778 5775 5773 5770 5768 5766 5764 5762 5760
5847 5844 5842 5839 5837 5834 5831 5828 5826 5823 5821 5819 5816 5814 5811 5809 5806 5803 5800 5797 5794 5791 5788 5785 5782 5779 5776 5773 5770 5767 5764 5761 5759 5756 5754 5752 5750 5748
5841 5838 5836 5834 5831 5828 5825 5823 5820 5817 5815 5812 5809 5806 5804 5801 5798 5795 5791 5788 5785 5782 5778 5775 5772 5769 5765 5762 5759 5756 5753 5750 5747 5745 5742 5740 5738 5736
5836 5833 5831 5828 5825 5822 5819 5817 5814 5811 5808 5805 5802 5799 5796 5793 5789 5786 5783 5779 5776 5772 5768 5765 5761 5758 5755 5751 5748 5745 5742 5739 5736 5733 5731 5728 5726 5724
5831 5827 5824 5821 5818 5815 5813 5810 5807 5804 5801 5798 5794 5791 5788 5785 5781 5777 5774 5770 5766 5762 5758 5755 5751 5748 5744 5741 5738 5734 5731 5728 5725 5722 5720 5717 5714 5712
5825 5821 5818 5815 5812 5809 5806 5803 5800 5797 5793 5790 5787 5783 5780 5776 5773 5768 5764 5761 5757 5753 5749 5745 5742 5738 5735 5731 5728 5725 5721 5718 5715 5712 5709 5706 5704 5701
5818 5815 5812 5809 5806 5803 5799 5796 5793 5790 5786 5783 5779 5776 5772 5768 5764 5760 5756 5751 5748 5744 5740 5736 5733 5729 5726 5722 5719 5715 5712 5708 5705 5702 5699 5696 5693 5691
5812 5809 5806 5802 5799 5796 5792 5789 5786 5783 5779 5775 5771 5768 5764 5760 5756 5751 5747 5743 5739 5735 5731 5728 5724 5720 5717 5713 5709 5706 5702 5699 5695 5692 5689 5686 5683 5681
5806 5802 5799 5796 5793 5789 5786 5782 5779 5776 5772 5768 5764 5760 5756 5752 5748 5744 5740 5735 5731 5728 5724 5720 5716 5712 5708 5704 5701 5697 5693 5689 5686 5683 5679 5676 5674 5671
5799 5796 5792 5789 5786 5782 5779 5775 5772 5768 5764 5761 5757 5752 5748 5744 5740 5736 5732 5728 5724 5720 5716 5712 5708 5704 5700 5697 5693 5689 5685 5681 5677 5674 5671 5668 5665 5662
5792 5789 5785 5782 5778 5775 5772 5768 5765 5761 5757 5753 5749 5745 5741 5737 5733 5728 5724 5720 5717 5713 5709 5705 5701 5697 5693 5689 5685 5681 5677 5674 5670 5666 5663 5660 5657 5654
5785 5782 5778 5775 5771 5768 5765 5761 5758 5754 5750 5746 5742 5738 5733 5729 5725 5721 5717 5713 5709 5705 5701 5697 5693 5689 5686 5682 5678 5674 5670 5666 5663 5659 5656 5652 5649 5646
5778 5775 5771 5768 5764 5761 5757 5754 5750 5747 5743 5739 5734 5730 5726 5722 5718 5714 5710 5706 5702 5698 5694 5690 5686 5682 5678 5675 5671 5667 5663 5659 5656 5653 5649 5645 5642 5638
5771 5768 5764 5761 5758 5754 5750 5747 5743 5739 5735 5731 5727 5723 5719 5715 5711 5707 5703 5699 5695 5691 5687 5683 5679 5675 5672 5668 5664 5660 5657 5653 5650 5646 5642 5639 5635 5632
5764 5761 5758 5754 5751 5747 5744 5740 5736 5732 5728 5724 5720 5716 5712 5708 5704 5700 5696 5692 5688 5684 5680 5676 5672 5669 5665 5662 5658 5654 5651 5647 5643 5639 5636 5633 5629 5626
5757 5754 5751 5747 5744 5740 5737 5733 5729 5725 5721 5717 5713 5709 5705 5701 5697 5693 5689 5685 5681 5677 5673 5670 5666 5662 5659 5655 5652 5648 5644 5641 5637 5634 5630 5626 5623 5620